Wind_Speed
47 50 50 51 51 52 51 48 48 46 45 46 44 43 43 43 43 45 46 44 42 41 42 40 40 35 32 29 28 21 18 22 18 20 15 15 18 12 10 15 19 21 20 23 29
49 50 51 52 53 53 52 51 50 49 48 47 46 44 45 44 44 45 47 47 45 44 45 44 41 41 38 36 30 24 21 22 13 15 7 13 17 16 16 14 18 16 18 19 27
51 51 52 52 53 53 54 54 54 53 52 50 49 48 48 45 45 47 47 48 49 48 49 46 45 44 42 38 35 31 27 26 22 27 20 21 19 18 17 18 23 16 13 17 25
43 50 52 53 55 55 55 54 54 55 55 53 52 51 50 50 50 48 48 47 49 49 48 49 47 44 45 42 42 39 35 33 29 29 25 20 27 23 24 20 18 17 14 17 18
42 45 48 52 55 57 57 58 57 57 57 56 56 55 53 52 52 50 50 51 50 50 50 51 48 47 45 44 44 43 38 37 36 29 25 17 28 26 26 23 18 14 15 18 17
40 44 47 49 53 55 57 59 59 59 58 58 56 54 53 55 53 53 50 49 49 50 52 51 47 50 48 48 47 46 47 44 38 32 33 25 21 31 24 28 21 20 20 23 19
44 44 45 48 51 53 56 58 59 59 58 57 57 55 54 57 51 51 52 49 47 48 49 51 48 49 50 50 46 46 48 47 43 41 35 32 24 24 25 28 24 22 24 25 19
49 49 50 50 51 53 55 57 58 59 59 58 57 55 55 55 49 52 52 50 50 47 47 46 45 46 47 50 48 49 50 47 47 45 44 41 29 25 8 24 32 25 28 30 21
55 55 55 55 56 56 57 58 58 58 58 58 57 53 59 56 50 55 50 50 48 45 44 43 42 45 45 44 47 51 51 47 45 46 46 48 43 44 47 48 36 25 27 30 25
63 63 63 62 62 62 63 62 62 61 60 60 58 57 59 56 54 54 51 49 48 47 44 42 43 40 40 40 44 47 46 46 46 45 46 43 42 42 39 35 29 29 23 24 33
68 70 70 70 69 69 69 67 67 66 67 66 61 62 62 62 59 58 56 56 53 48 48 47 42 38 42 42 40 39 36 40 44 43 45 43 34 33 37 36 36 31 31 30 19
75 76 77 77 77 76 75 74 75 71 72 71 69 70 67 68 64 65 61 57 54 54 53 45 39 48 46 45 38 36 33 37 38 45 44 41 53 33 36 29 29 34 32 32 25
83 83 84 84 83 82 82 81 80 77 76 76 76 73 75 72 71 70 66 63 59 61 56 50 56 53 49 46 40 37 35 35 34 45 55 50 54 41 42 29 22 29 38 35 27
86 88 90 91 90 88 87 87 85 83 80 85 82 79 78 76 75 77 73 70 68 65 63 58 62 54 51 47 44 41 40 41 36 44 54 54 53 58 36 38 39 32 22 32 32
81 85 89 93 95 95 94 94 92 89 87 89 85 82 85 81 83 83 78 75 73 72 69 65 67 60 55 52 48 45 46 45 39 39 54 55 55 51 48 44 49 44 36 37 36
82 83 84 87 90 93 96 98 97 95 94 98 93 93 90 87 86 87 82 80 79 77 72 74 72 64 60 60 55 56 52 50 43 38 40 53 49 44 52 45 50 45 52 46 39
82 85 87 88 88 89 90 92 93 95 101 107 102 99 95 93 92 90 87 84 82 80 76 78 75 70 67 65 63 62 58 53 47 41 38 47 61 55 52 49 51 44 53 46 49
72 78 84 89 90 89 89 90 88 93 99 110 103 102 98 96 96 94 92 89 86 84 83 81 79 74 70 69 67 67 64 58 52 49 46 48 45 61 65 57 55 59 51 62 56
53 61 70 78 84 89 91 90 92 98 103 97 99 101 99 100 100 101 97 93 92 91 87 84 78 80 81 77 77 70 70 63 61 56 55 53 53 53 53 67 73 58 41 56 63
38 43 50 59 68 76 84 92 96 101 101 94 93 90 89 95 101 103 103 101 99 97 93 87 87 87 82 82 80 78 71 70 66 62 60 58 58 51 46 51 50 54 63 66 53
28 31 34 40 50 59 69 76 87 96 94 95 94 92 96 96 97 101 107 105 104 101 99 95 93 88 89 88 80 78 75 73 68 66 64 62 62 61 56 54 55 56 54 48 44
28 28 29 32 36 42 50 60 74 82 86 95 101 101 100 99 101 103 101 101 105 101 99 98 94 92 89 86 83 82 78 77 73 69 70 67 67 68 64 62 62 61 53 49 44
23 28 28 30 33 36 39 47 57 66 76 89 92 95 101 104 105 100 103 102 102 103 101 98 96 93 94 93 91 86 81 80 78 77 71 69 69 69 69 68 64 67 51 49 40
23 22 27 26 30 34 38 43 49 53 63 70 78 90 97 100 104 107 107 102 102 104 98 101 99 96 91 90 86 86 84 82 81 79 73 71 76 74 76 72 69 73 61 52 43
30 24 21 24 27 28 33 40 47 48 57 60 71 75 79 91 101 108 111 107 106 105 99 100 98 95 88 85 87 89 88 87 89 83 78 77 80 83 81 76 80 69 65 56 49
39 30 26 21 23 24 31 36 43 47 51 55 60 65 73 77 85 94 99 103 107 106 102 101 100 98 93 90 95 97 93 91 92 89 82 85 86 88 83 87 78 70 68 61 53
48 39 31 25 23 23 29 33 37 38 45 48 51 59 62 64 68 79 85 92 98 103 104 104 101 100 95 99 97 98 96 96 93 92 92 93 93 86 93 87 74 72 66 60 55
Wind_Direction
203 204 207 210 212 216 218 220 219 219 219 218 221 223 225 224 226 228 229 230 231 233 235 236 237 241 241 238 248 246 239 241 257 270 256 277 302 311 318 327 345 348 347 351 357
207 209 211 212 214 217 220 222 222 221 221 223 223 227 228 229 228 229 231 233 235 236 235 237 239 242 242 243 241 239 237 247 256 211 259 289 299 298 307 307 322 351 347 351 351
214 215 216 217 218 220 222 223 223 225 226 227 230 229 228 230 232 232 232 234 237 238 238 240 240 241 245 247 244 238 237 239 249 255 294 299 294 290 286 296 314 325 336 342 342
218 221 223 223 222 223 224 226 227 228 230 234 233 233 234 233 234 233 235 237 238 241 244 243 243 244 245 246 250 247 244 244 238 250 266 279 294 287 277 277 301 310 307 339 331
222 223 225 226 227 228 228 228 228 230 232 234 233 234 235 238 237 237 240 237 238 240 243 245 244 242 244 246 249 250 246 243 249 250 252 265 253 274 293 281 278 275 285 324 330
230 227 226 227 228 229 230 231 232 232 233 233 234 236 237 238 238 238 239 239 238 240 242 244 245 246 245 244 248 250 251 248 246 244 248 243 246 273 275 268 260 261 282 306 308
236 235 232 230 229 230 231 231 233 234 235 235 234 235 240 239 238 240 239 239 238 239 243 244 246 248 246 245 244 247 248 249 247 248 246 243 252 266 253 266 263 264 286 305 290
239 238 236 236 234 232 232 231 232 232 232 234 235 235 237 237 236 237 238 238 236 236 238 242 242 245 245 244 246 244 244 246 244 239 242 244 225 170 216 254 269 276 284 292 279
243 241 240 239 238 237 235 233 232 233 233 232 233 232 235 235 230 236 234 235 235 234 234 235 238 241 243 242 241 242 245 244 239 241 241 245 241 240 241 250 259 275 275 280 274
247 246 244 241 240 239 238 237 236 234 234 232 230 231 234 234 233 234 232 233 234 232 232 230 232 237 239 239 239 241 243 241 238 237 235 235 238 249 247 250 256 263 264 274 268
248 248 247 245 243 242 240 239 238 237 237 236 234 234 233 234 232 234 231 230 231 231 231 230 230 232 233 237 237 239 236 237 238 234 231 229 220 225 244 250 257 252 252 260 257
248 248 247 246 245 244 244 242 241 238 239 238 237 238 234 235 233 234 232 232 232 232 233 231 229 232 231 235 233 236 234 235 226 224 224 217 213 232 234 233 248 248 248 255 256
249 248 248 247 245 244 244 244 243 242 240 241 239 236 235 235 235 234 233 232 230 231 231 228 231 230 229 233 231 232 232 236 221 220 216 217 217 220 222 227 226 241 233 245 240
253 250 249 248 247 245 245 244 243 241 240 242 239 238 240 236 238 237 234 233 232 231 231 228 236 231 232 233 232 232 233 232 223 219 219 213 213 218 216 228 211 219 238 221 225
255 253 251 249 248 247 246 245 244 243 242 241 242 238 238 237 236 238 236 234 234 234 232 234 235 233 231 234 232 231 231 234 233 220 216 216 212 222 220 226 210 223 237 240 246
258 255 253 251 249 247 246 245 244 243 243 241 239 241 238 238 237 239 236 236 235 234 233 236 235 232 233 233 231 232 229 232 229 227 220 211 209 206 212 213 205 216 234 238 234
261 257 254 250 248 246 245 244 243 242 242 242 237 237 239 238 237 237 238 237 237 236 234 236 235 234 234 236 235 235 233 231 230 228 224 222 213 207 210 219 222 226 231 233 240
261 257 252 249 247 245 243 242 241 241 240 240 237 237 237 238 239 238 237 237 237 236 235 235 235 235 235 235 236 236 235 232 231 227 222 225 220 219 219 219 223 228 230 236 238
262 256 252 250 246 243 241 239 237 237 239 239 238 238 237 239 239 240 238 236 236 236 234 234 234 233 232 231 232 233 233 231 228 227 226 226 226 221 223 229 230 229 233 237 251
273 263 256 252 247 243 240 238 237 237 236 237 238 237 237 235 236 237 236 235 234 234 233 232 232 232 231 231 232 233 231 230 228 228 228 229 232 232 227 232 234 236 238 246 245
284 273 263 254 248 244 242 239 239 239 239 237 237 234 232 232 233 235 233 232 231 232 231 230 231 231 231 232 232 232 234 234 231 227 230 230 231 233 227 232 234 232 235 237 240
296 284 271 261 252 246 243 240 238 238 236 237 234 231 231 232 231 231 233 234 234 232 231 231 231 231 232 232 232 232 230 231 232 230 231 231 232 238 232 228 234 238 235 235 238
306 296 284 269 257 249 243 241 238 237 237 236 235 234 234 232 232 231 229 230 231 231 230 230 229 229 229 230 230 231 232 232 231 230 230 230 234 235 238 235 234 241 241 240 239
332 318 298 282 265 256 251 246 240 237 236 233 235 234 232 231 233 232 230 229 229 229 227 228 227 228 230 230 231 232 231 233 231 230 230 231 232 231 235 236 237 240 237 237 235
352 341 324 295 274 263 257 255 251 238 242 235 233 234 232 232 230 230 230 228 227 228 225 227 227 227 226 227 227 229 229 229 229 227 227 229 230 230 232 231 235 237 240 240 233
3 353 339 315 288 278 271 264 258 255 246 242 237 236 232 229 231 234 234 231 228 228 224 224 223 224 222 224 226 225 225 226 229 226 222 227 229 231 229 234 239 238 239 238 234
8 359 349 333 312 299 288 279 272 258 249 247 239 235 234 229 227 230 232 232 232 228 226 225 223 223 220 224 224 226 226 225 225 225 222 223 227 226 233 232 235 239 235 240 240
Height
10907 10912 10917 10922 10926 10931 10935 10940 10944 10949 10953 10958 10962 10967 10971 10976 10981 10985 10989 10993 10996 10999 11003 11008 11013 11017 11020 11026 11026 11032 11034 11034 11031 11029 11031 11035 11037 11038 11038 11036 11036 11037 11035 11034 11032
10902 10907 10911 10916 10920 10925 10929 10933 10938 10942 10947 10952 10956 10960 10965 10971 10976 10979 10984 10987 10991 10994 10998 11003 11007 11011 11015 11020 11024 11028 11030 11031 11031 11023 11029 11034 11036 11037 11038 11037 11038 11037 11037 11036 11033
10897 10901 10905 10909 10914 10918 10922 10926 10931 10935 10940 10945 10950 10955 10959 10965 10970 10972 10977 10981 10984 10987 10992 10997 11001 11006 11009 11014 11018 11024 11027 11027 11027 11027 11028 11033 11034 11036 11037 11036 11036 11037 11037 11036 11035
10891 10895 10898 10902 10906 10910 10914 10918 10923 10928 10932 10937 10942 10948 10953 10958 10961 10966 10970 10975 10977 10979 10984 10990 10995 11000 11004 11009 11010 11016 11021 11022 11026 11027 11032 11035 11033 11033 11033 11036 11035 11036 11036 11036 11037
10883 10886 10889 10893 10898 10902 10906 10910 10915 10919 10923 10929 10933 10939 10945 10948 10953 10959 10962 10967 10970 10973 10976 10980 10987 10992 10997 11000 11003 11007 11013 11017 11021 11029 11033 11033 11026 11028 11030 11034 11034 11033 11035 11036 11038
10874 10877 10880 10884 10888 10891 10895 10900 10904 10909 10914 10919 10925 10930 10935 10936 10946 10950 10953 10958 10963 10965 10969 10973 10979 10982 10990 10993 10995 10999 11002 11008 11019 11021 11026 11029 11028 11026 11029 11032 11032 11031 11034 11035 11038
10864 10867 10870 10873 10877 10880 10884 10888 10893 10898 10903 10908 10915 10921 10923 10926 10935 10940 10942 10948 10953 10957 10961 10966 10971 10973 10978 10984 10988 10989 10990 10999 11009 11014 11022 11025 11030 11030 11030 11031 11029 11027 11031 11033 11036
10853 10856 10859 10862 10865 10869 10872 10877 10881 10886 10892 10898 10903 10910 10910 10919 10924 10927 10932 10938 10944 10948 10952 10957 10963 10963 10967 10975 10978 10981 10981 10994 10996 11004 11009 11018 11027 11026 11038 11007 11025 11024 11027 11029 11034
10841 10843 10846 10850 10853 10856 10860 10864 10869 10874 10880 10886 10893 10900 10895 10909 10912 10915 10923 10927 10933 10939 10943 10949 10954 10954 10961 10965 10967 10969 10975 10985 10986 10993 11001 11009 11016 11017 11022 11021 11018 11020 11023 11026 11029
10825 10827 10831 10835 10838 10841 10845 10850 10855 10862 10868 10872 10881 10886 10888 10896 10902 10906 10913 10918 10923 10929 10936 10941 10943 10949 10951 10955 10958 10962 10968 10973 10978 10984 10991 10997 11002 11004 11007 11010 11013 11015 11017 11020 11025
10809 10809 10812 10816 10820 10824 10828 10835 10840 10848 10851 10857 10869 10873 10876 10881 10889 10893 10899 10904 10911 10920 10924 10929 10938 10943 10941 10942 10950 10956 10960 10963 10971 10973 10981 10991 10993 10992 10998 11003 11006 11007 11011 11015 11018
10788 10789 10791 10796 10800 10804 10809 10816 10819 10832 10836 10842 10853 10857 10863 10866 10876 10878 10886 10895 10902 10907 10912 10924 10933 10925 10930 10934 10944 10948 10953 10953 10962 10963 10974 10979 10980 10980 10990 10997 11000 11002 11005 11009 11012
10765 10767 10769 10772 10777 10783 10789 10794 10800 10811 10820 10824 10828 10840 10840 10852 10859 10864 10874 10881 10891 10892 10902 10913 10909 10915 10924 10927 10937 10942 10945 10947 10954 10956 10962 10969 10973 10976 10984 10991 10997 10998 11002 11005 11006
10739 10742 10746 10749 10754 10760 10767 10771 10778 10789 10801 10795 10809 10821 10825 10837 10844 10844 10857 10865 10873 10882 10887 10898 10895 10910 10916 10922 10929 10934 10936 10938 10944 10948 10954 10959 10965 10968 10977 10984 10987 10992 10995 10999 11001
10713 10715 10719 10723 10727 10734 10742 10748 10756 10768 10776 10778 10790 10802 10802 10817 10816 10822 10836 10849 10859 10865 10873 10886 10884 10897 10907 10913 10918 10924 10926 10927 10937 10941 10946 10951 10959 10964 10973 10977 10982 10985 10991 10993 10996
10685 10686 10689 10693 10697 10704 10712 10719 10731 10745 10749 10747 10764 10767 10780 10793 10800 10804 10819 10830 10838 10848 10862 10863 10870 10886 10896 10897 10906 10907 10915 10919 10928 10935 10943 10951 10956 10963 10964 10969 10978 10980 10982 10984 10989
10649 10652 10655 10659 10666 10674 10681 10688 10702 10717 10714 10710 10729 10740 10756 10769 10776 10786 10798 10810 10822 10832 10846 10845 10859 10871 10879 10887 10893 10896 10904 10912 10921 10929 10936 10939 10949 10960 10955 10960 10968 10973 10973 10978 10980
10612 10614 10618 10623 10632 10641 10651 10661 10678 10674 10672 10668 10709 10722 10737 10746 10754 10764 10776 10790 10801 10811 10821 10831 10841 10856 10867 10873 10878 10882 10890 10903 10913 10919 10926 10927 10937 10945 10943 10954 10958 10959 10967 10972 10974
10583 10583 10585 10591 10598 10609 10618 10631 10637 10632 10633 10664 10679 10696 10717 10723 10731 10738 10754 10767 10776 10784 10801 10811 10826 10832 10837 10851 10854 10870 10874 10891 10898 10906 10911 10917 10921 10927 10938 10941 10946 10953 10963 10966 10966
10563 10561 10563 10566 10570 10578 10585 10596 10601 10602 10611 10641 10653 10676 10691 10695 10697 10706 10719 10736 10746 10758 10773 10795 10798 10809 10825 10830 10840 10849 10865 10872 10884 10895 10901 10907 10911 10924 10933 10934 10941 10945 10949 10955 10965
10550 10547 10546 10547 10548 10553 10559 10571 10574 10581 10605 10616 10627 10644 10647 10661 10672 10675 10684 10699 10715 10731 10748 10765 10775 10793 10802 10811 10833 10841 10850 10861 10874 10883 10890 10896 10900 10903 10917 10921 10923 10928 10934 10942 10953
10538 10535 10534 10533 10534 10535 10540 10546 10551 10558 10572 10581 10589 10604 10615 10629 10634 10644 10666 10686 10700 10715 10729 10746 10763 10770 10792 10804 10814 10822 10834 10844 10856 10869 10875 10882 10888 10888 10899 10907 10905 10908 10925 10933 10940
10531 10525 10522 10521 10522 10522 10524 10525 10529 10536 10546 10550 10562 10579 10591 10600 10607 10630 10638 10655 10669 10683 10708 10728 10741 10754 10762 10779 10790 10805 10821 10830 10840 10846 10862 10869 10873 10878 10880 10889 10899 10896 10916 10923 10935
10524 10519 10513 10511 10509 10509 10511 10512 10512 10518 10519 10529 10535 10541 10554 10569 10585 10597 10606 10631 10646 10657 10688 10698 10718 10734 10750 10771 10781 10789 10799 10809 10820 10835 10849 10858 10851 10862 10858 10875 10886 10883 10903 10914 10924
10519 10513 10508 10504 10500 10501 10500 10497 10495 10504 10500 10508 10508 10520 10535 10546 10553 10555 10571 10601 10617 10631 10663 10676 10699 10716 10735 10751 10753 10764 10775 10782 10794 10814 10828 10835 10823 10834 10845 10857 10853 10879 10889 10903 10914
10517 10508 10503 10498 10496 10493 10488 10486 10483 10482 10484 10488 10495 10500 10505 10520 10534 10551 10562 10582 10598 10613 10635 10651 10671 10687 10710 10718 10726 10734 10752 10765 10779 10791 10809 10801 10798 10808 10836 10832 10852 10873 10877 10889 10897
10518 10506 10497 10491 10487 10483 10477 10472 10467 10465 10465 10468 10474 10479 10488 10506 10520 10523 10538 10553 10579 10593 10616 10631 10649 10665 10693 10691 10704 10716 10734 10745 10758 10761 10773 10764 10771 10799 10804 10826 10846 10859 10871 10879 10887